Overview Statistics Trail Chart Weather Telemetry Raw packets
 

This is the latest recevied weather packets stored in our database for station/object KB0Y. If no packets are shown the sender has not sent any weather packets the latest 10 day(s).

<< 9 10 11 12 13 14 15 >>
Time Temp. Humidity Pressure Rain* Wind** Luminosity Snow
1788552112 32.22° C 76% 1018.3 hPa 0 mm - 48 W/m² -
1788551810 32.22° C 75% 1017.9 hPa 0 mm - 96 W/m² -
1788551510 32.78° C 75% 1018.3 hPa 0 mm - 110 W/m² -
1788551210 32.78° C 76% 1018.3 hPa 0 mm - 111 W/m² -
1788550904 33.33° C 74% 1017.9 hPa 0 mm - 130 W/m² -
1788550599 33.33° C 75% 1018.3 hPa 0 mm - 154 W/m² -
1788550296 33.33° C 74% 1018.3 hPa 0 mm - 245 W/m² -
1788549996 33.33° C 70% 1018.3 hPa 0 mm - 187 W/m² -
1788549691 32.78° C 70% 1017.9 hPa 0 mm - 454 W/m² -
1788549388 32.78° C 72% 1018.3 hPa 0 mm - 417 W/m² -
1788549084 32.78° C 72% 1018.3 hPa 0 mm - 579 W/m² -
1788548779 32.22° C 76% 1017.9 hPa 0 mm - 545 W/m² -
1788548475 32.22° C 74% 1017.9 hPa 0 mm - 533 W/m² -
1788548172 31.67° C 74% 1017.9 hPa 0 mm - 530 W/m² -
1788547866 31.67° C 75% 1018.3 hPa 0 mm - 532 W/m² -
1788547565 31.67° C 76% 1018.6 hPa 0 mm - 299 W/m² -
1788547261 31.67° C 79% 1018.6 hPa 0 mm - 172 W/m² -
1788546956 31.67° C 80% 1018.6 hPa 0 mm - 161 W/m² -
1788546650 31.67° C 80% 1018.6 hPa 0 mm - 199 W/m² -
1788546341 31.67° C 79% 1018.9 hPa 0 mm - 219 W/m² -
1788546041 32.22° C 78% 1018.6 hPa 0 mm - 505 W/m² -
1788545737 31.67° C 79% 1018.6 hPa 0 mm - 570 W/m² -
1788545437 31.67° C 79% 1018.9 hPa 0 mm - 571 W/m² -
1788545131 31.67° C 78% 1018.6 hPa 0 mm - 572 W/m² -
1788544826 31.67° C 78% 1018.9 hPa 0 mm - 164 W/m² -

* Rain latest hour (hover to see other rain measurements)
** Current wind speed in m/s (hover to see current wind gust speed)